Starlink 11168

operational
NORAD ID: 60183 Int'l Des: 2024-124 Owner: SPXS Country: US Constellation: starlink
LEOCIRCULAR

About Starlink 11168

Description loading...

Live Position

Loading 3D Globe...

Upcoming Passes

Altitude History

Altitude vs Time

uPlot chart will show altitude changes over time

Two-Line Element Set

1 60183U 24124A 25257.44310464 .00000941 00000-0 12620-4 0 9997
2 60183 53.1596 310.0110 0001082 77.3586 282.7553 15.69710859 70046
Epoch: Sep 14, 2025 • Age: 29 hours

Current Status

Altitude 370.4 km
Velocity 7.69 km/s
Sub-Earth Point -32.95°S, 48.06°E
Launch Date Jul 3, 2024
Age 1.2 years
Type internet

Technical Details

Classification Payload
Mass 960.00 kg
Dry Mass 910.00 kg
Total Mass 960.00 kg
Length 0.30 m
Diameter 4.10 m
Span 29.00 m
Shape Box + pan
Manufacturer SPXS
Bus Type Starlink V2MD
Phase Status In Orbit
Owner/State SPXS/US

Large Constellations

Loading constellations...